Location: Columbia
(38.9520°N, 92.3340°W)
Time: 01:43:59
(UTC-06:00)

Daily predictions for brighter satellites

Satellite Brightness Start Highest point End
(mag) Time Altitude Azimuth Time Altitude Azimuth Time Altitude Azimuth
Cosmos 2369 Rocket 4.4 04:00:14 16° NNE 04:01:46 18° NE 04:05:35 10° E
USA 215 4.2 04:25:21 10° ENE 04:31:31 44° SE 04:36:43 15° SSW
Lacrosse 5 3.0 04:33:41 38° NE 04:33:41 38° NE 04:36:49 10° NE
Cosmos 2074 Rocket 3.9 04:28:44 10° S 04:35:00 82° E 04:41:17 10° N
Cosmos 1624 Rocket 4.3 04:38:22 63° ENE 04:38:22 63° ENE 04:43:30 10° SSE
CENTAUR R/B 4.2 04:42:07 20° N 04:42:07 20° N 04:45:03 10° NNE
BREEZE-M DEB (TANK) 4.0 04:40:19 58° SSE 04:40:41 59° SE 04:51:01 10° ENE
Tiangong 2 4.3 04:46:21 13° ENE 04:46:21 13° ENE 04:46:50 10° ENE
Cosmos 1371 Rocket 4.3 04:44:56 59° SSE 04:44:56 59° SSE 04:49:08 10° SSE
Feng Yun 1-1 Rocket 4.2 04:38:23 10° NNE 04:43:58 79° ESE 04:49:23 10° S
USA 32 4.4 04:53:06 52° S 04:53:06 52° S 04:57:01 10° S
Cosmos 2184 Rocket 3.8 04:48:16 10° SSW 04:54:24 74° W 05:00:38 10° N
Cosmos 44 3.6 05:02:20 21° SSW 05:05:56 74° ESE 05:11:10 10° NE
CRYOSAT 2 4.4 05:02:30 10° SSE 05:07:21 77° E 05:11:44 13° N
Cosmos 2154 Rocket 4.1 05:04:21 10° S 05:10:33 77° E 05:16:45 10° N
Lacrosse 4 Rocket 4.1 05:09:02 10° NNE 05:11:05 13° NE 05:13:07 10° ENE
Cosmos 1452 Rocket 4.3 05:10:05 16° N 05:14:07 50° ENE 05:19:14 10° SE
Meteor 1-19 Rocket 4.4 05:12:22 10° N 05:18:13 78° E 05:23:57 10° SSE
Okean 1 Rocket 2.9 05:14:34 10° S 05:18:58 81° W 05:23:22 10° N
COSMO-SKYMED 1 2.5 05:22:15 10° SSE 05:26:35 83° ENE 05:29:33 20° N
Meteor 1-11 Rocket 3.6 05:22:56 10° SSW 05:28:47 78° W 05:34:31 10° N
NOAA 6 4.0 05:32:47 10° N 05:37:48 55° WNW 05:42:47 10° SSW
Meteor 1-13 Rocket 4.4 05:34:22 11° NNW 05:40:01 57° W 05:45:47 10° S
Abrixas rocket 3.6 05:41:09 26° N 05:41:09 26° N 05:43:36 10° NE
Meteor 1-23 Rocket 4.3 05:36:57 10° N 05:42:31 76° E 05:48:04 10° SSE
USA 229 DEB 3.7 05:38:13 10° SSW 05:45:06 90° WNW 05:52:05 10° NNE
USA 229 3.7 05:38:19 10° SSW 05:45:12 90° ESE 05:52:11 10° NNE
Cosmos 2369 Rocket 2.1 05:42:04 18° NNW 05:46:21 70° WSW 05:52:00 10° SSE
Cosmos 1892 Rocket 4.5 05:42:33 10° N 05:46:55 50° E 05:51:16 10° SSE
Okean 1-7 Rocket 3.6 05:44:10 20° NNW 05:47:02 54° W 05:51:18 10° S
Meteor 2-4 Rocket 3.6 05:42:16 10° N 05:47:50 82° W 05:53:32 10° S
Cosmos 1269 Rocket 4.3 05:48:50 10° S 05:54:05 73° ESE 05:59:24 10° NNE
Meteor 1-5 Rocket 4.1 05:50:07 10° S 05:55:28 85° E 06:00:47 10° N
Cosmos 44 Rocket 4.4 05:56:27 24° WNW 05:57:33 26° NW 06:01:49 10° N
Cosmos 1295 Rocket 4.4 05:52:28 10° S 05:58:45 77° W 06:05:01 10° N
CZ-3 R/B 3.1 05:49:38 10° WSW 05:59:07 27° S 06:02:52 10° SE
Cosmos 2084 3.0 05:55:57 10° SW 05:59:52 84° NW 06:03:41 10° NNE
SL-24 DEB 4.2 05:55:48 10° S 06:00:32 67° W 06:05:20 10° N
Cosmos 2218 Rocket 4.3 05:54:22 10° S 06:00:43 73° E 06:07:07 10° N
Cosmos 468 4.4 05:57:57 10° SSW 06:03:10 67° WNW 06:08:28 10° NNE
Nadezhda 3 Rocket 4.3 05:58:15 10° NNW 06:04:14 44° W 06:10:11 10° SSW
Cosmos 1420 Rocket 4.0 06:01:07 10° NNW 06:06:23 87° ENE 06:11:35 10° SSE
SL-23 DEB 4.2 06:04:57 19° NNW 06:06:57 44° NE 06:10:35 10° ESE
CZ-2C R/B 3.6 06:02:17 10° NNE 06:07:15 47° E 06:12:03 10° S
GRACE-2 3.7 06:04:56 10° N 06:07:43 83° W 06:10:29 10° S
Okean 2 3.3 06:03:40 10° N 06:07:51 83° W 06:11:59 10° S
GRACE-1 3.7 06:05:21 10° N 06:08:09 80° W 06:10:55 10° S
Cosmos 1455 Rocket 3.3 06:05:07 10° S 06:09:24 70° E 06:13:44 10° NNE
Cosmos 1943 3.7 06:05:59 10° SW 06:11:04 34° WNW 06:16:12 10° N
Cosmos 1536 3.7 06:09:02 10° SW 06:12:28 27° WNW 06:15:58 10° NNW
USA 215 3.4 06:08:16 10° NE 06:14:34 53° NW 06:20:51 10° WSW
Lacrosse 5 3.2 06:12:56 17° WNW 06:15:13 22° NNW 06:19:11 10° NNE
Ariane Rocket 3.2 06:11:28 10° N 06:16:16 45° WNW 06:21:03 10° SW
Cosmos 1900 4.4 06:12:22 12° NW 06:16:52 63° WSW 06:21:44 10° SSE
ATLAS CENTAUR Rocket 3.9 06:12:43 10° WSW 06:18:54 23° SSW 06:22:14 10° SSE
Cosmos 1048 Rocket 3.9 06:14:03 10° SSW 06:19:09 73° WNW 06:24:21 10° NNE
Tiangong 2 1.0 06:18:24 18° WNW 06:20:33 76° SSW 06:23:42 10° ESE
Cosmos 1943 Rocket 2.1 06:15:06 10° NNW 06:20:37 78° WSW 06:26:07 10° SSE
CZ-4 R/B 1.3 06:16:51 10° NNE 06:20:47 84° ESE 06:24:40 10° S
Meteor 1-29 4.3 06:21:59 10° SE 06:25:08 39° ENE 06:28:19 10° N
Cosmos 1727 Rocket 4.2 06:19:22 10° N 06:25:35 78° E 06:31:47 10° S
SPOT 3 Rocket 4.1 06:21:00 10° NNE 06:26:08 64° ESE 06:31:13 10° S
USA 129 2.8 06:31:40 10° SSW 06:33:31 26° W 06:35:24 10° NW
Cosmos 1025 Rocket 4.1 06:30:30 10° NW 06:34:03 25° W 06:37:34 10° SW
Lacrosse 5 rocket 4.0 06:37:36 10° NNE 06:38:09 10° NNE 06:38:42 10° NNE
IRS-1A Rocket 4.4 06:33:12 10° N 06:38:48 58° WNW 06:44:29 10° SSW
SJ-12 3.9 06:35:38 10° N 06:39:45 65° WNW 06:43:52 10° SSW
Cosmos 1656 Rocket 4.0 06:35:24 10° NNW 06:41:04 71° ENE 06:46:44 10° SSE
Cosmos 1743 4.3 06:39:31 10° SSE 06:43:11 40° E 06:46:53 10° NNE
Cosmos 1500 3.1 06:40:19 10° S 06:44:03 86° W 06:47:50 10° N
YAOGAN 1 2.5 06:40:32 10° N 06:44:52 78° WNW 06:49:11 10° SSW
ASTRO E2 4.4 06:43:19 10° WSW 06:46:47 28° S 06:50:14 10° ESE
SL-27 R/B 2.4 06:44:02 10° SSW 06:47:34 72° WNW 06:51:12 10° NNE
Lacrosse 4 Rocket 1.5 06:46:08 10° NW 06:50:12 58° WSW 06:54:10 10° SSE
SMAP 3.1 06:46:03 10° N 06:50:41 65° WNW 06:55:17 10° SSW
